| time (UTC) | temp F | wind direction | speed MPH | gust MPH | rain 1hr in | rain 24hr in | rain mn in | humidity % | barometer mb |
| 20260901091513 | 60 | 302 | 0.0 | 2.0 | 0.00 | 0.00 | 0.00 | 94 | 1011.0 |
| 20260901090126 | 58 | 302 | 0.0 | 2.0 | 0.00 | 0.00 | 0.00 | 94 | 1010.8 |
| 20260901084517 | 58 | 302 | 0.0 | 1.0 | 0.00 | 0.00 | 0.00 | 93 | 1010.8 |
| 20260901083126 | 58 | 302 | 1.0 | 2.0 | 0.00 | 0.00 | 0.00 | 93 | 1010.6 |
| 20260901081504 | 59 | 302 | 0.0 | 1.0 | 0.00 | 0.00 | 0.00 | 93 | 1010.7 |
| 20260901080003 | 58 | 302 | 0.0 | 1.0 | 0.00 | 0.00 | 0.00 | 93 | 1010.8 |
| 20260901074627 | 59 | 302 | 0.0 | 0.0 | 0.00 | 0.00 | 0.00 | 93 | 1010.7 |
| 20260901073026 | 59 | 302 | 1.0 | 2.0 | 0.00 | 0.00 | 0.00 | 93 | 1011.0 |
| 20260901071515 | 59 | 302 | 1.0 | 2.0 | 0.00 | 0.00 | 0.00 | 93 | 1011.0 |
| 20260901070021 | 60 | 302 | 1.0 | 2.0 | 0.00 | 0.00 | 0.00 | 93 | 1011.2 |
| 20260901064503 | 60 | 302 | 0.0 | 2.0 | 0.00 | 0.00 | 0.00 | 93 | 1011.3 |
| 20260901063012 | 60 | 302 | 0.0 | 0.0 | 0.00 | 0.00 | 0.00 | 93 | 1011.5 |
| 20260901061506 | 61 | 302 | 0.0 | 2.0 | 0.00 | 0.00 | 0.00 | 93 | 1011.4 |
| 20260901060011 | 61 | 302 | 0.0 | 0.0 | 0.00 | 0.00 | 0.00 | 93 | 1011.3 |
| 20260901054503 | 61 | 302 | 0.0 | 0.0 | 0.00 | 0.00 | 0.00 | 92 | 1011.3 |
| 20260901053009 | 61 | 302 | 0.0 | 2.0 | 0.00 | 0.00 | 0.00 | 92 | 1011.2 |
| 20260901051630 | 62 | 302 | 0.0 | 1.0 | 0.00 | 0.00 | 0.00 | 92 | 1011.1 |
| 20260901050127 | 62 | 302 | 0.0 | 0.0 | 0.00 | 0.00 | 0.00 | 92 | 1011.0 |
| 20260901044507 | 62 | 302 | 0.0 | 0.0 | 0.00 | 0.00 | 0.00 | 92 | 1011.0 |
| 20260901043006 | 62 | 302 | 0.0 | 2.0 | 0.00 | 0.00 | 0.00 | 92 | 1010.9 |
| 20260901041505 | 63 | 302 | 0.0 | 1.0 | 0.00 | 0.00 | 0.00 | 91 | 1010.7 |
| 20260901040007 | 63 | 302 | 0.0 | 1.0 | 0.00 | 0.00 | 0.00 | 91 | 1010.6 |
| 20260901034522 | 64 | 302 | 0.0 | 2.0 | 0.00 | 0.00 | 0.00 | 90 | 1010.7 |
| 20260901033011 | 64 | 302 | 0.0 | 1.0 | 0.00 | 0.00 | 0.00 | 89 | 1010.6 |
| 20260901031627 | 65 | 302 | 0.0 | 0.0 | 0.00 | 0.00 | 0.00 | 89 | 1010.4 |
| 20260901030018 | 65 | 302 | 0.0 | 1.0 | 0.00 | 0.00 | 0.00 | 88 | 1010.4 |
| 20260901024514 | 66 | 302 | 0.0 | 1.0 | 0.00 | 0.00 | 0.00 | 88 | 1010.1 |
| 20260901023127 | 66 | 302 | 0.0 | 2.0 | 0.00 | 0.00 | 0.00 | 87 | 1010.2 |
| 20260901021515 | 67 | 302 | 0.0 | 0.0 | 0.00 | 0.00 | 0.00 | 86 | 1010.1 |
| 20260901020011 | 68 | 302 | 0.0 | 0.0 | 0.00 | 0.00 | 0.00 | 85 | 1010.1 |
| 20260901014507 | 68 | 302 | 0.0 | 2.0 | 0.00 | 0.00 | 0.00 | 83 | 1010.0 |
| 20260901013133 | 69 | 302 | 0.0 | 0.0 | 0.00 | 0.00 | 0.00 | 80 | 1009.8 |
| 20260901011509 | 70 | 302 | 0.0 | 0.0 | 0.00 | 0.00 | 0.00 | 77 | 1009.6 |
| 20260901010003 | 72 | 302 | 0.0 | 0.0 | 0.00 | 0.00 | 0.00 | 74 | 1009.7 |
| 20260901004515 | 74 | 302 | 0.0 | 1.0 | 0.00 | 0.00 | 0.00 | 68 | 1009.6 |
| 20260901003007 | 79 | 302 | 2.0 | 3.0 | 0.00 | 0.00 | 0.00 | 55 | 1009.6 |
| 20260901001626 | 81 | 302 | 1.0 | 3.0 | 0.00 | 0.00 | 0.00 | 52 | 1009.6 |
| 20260901000015 | 82 | 302 | 2.0 | 5.0 | 0.00 | 0.00 | 0.00 | 48 | 1009.4 |
| 20260831234503 | 83 | 303 | 2.0 | 5.0 | 0.00 | 0.00 | 0.00 | 47 | 1009.3 |
| 20260831233014 | 84 | 283 | 3.0 | 6.0 | 0.00 | 0.00 | 0.00 | 45 | 1009.3 |
| 20260831231502 | 84 | 301 | 3.0 | 5.0 | 0.00 | 0.00 | 0.00 | 44 | 1009.4 |
| 20260831230013 | 84 | 217 | 4.0 | 9.0 | 0.00 | 0.00 | 0.00 | 46 | 1009.3 |
| 20260831224512 | 84 | 250 | 5.0 | 9.0 | 0.00 | 0.00 | 0.00 | 47 | 1009.2 |
| 20260831223012 | 85 | 311 | 3.0 | 8.0 | 0.00 | 0.00 | 0.00 | 50 | 1009.3 |
| 20260831221529 | 86 | 270 | 2.0 | 8.0 | 0.00 | 0.00 | 0.00 | 50 | 1009.0 |
| 20260831220128 | 85 | 309 | 3.0 | 8.0 | 0.00 | 0.00 | 0.00 | 48 | 1009.0 |
| 20260831214624 | 86 | 332 | 2.0 | 10.0 | 0.00 | 0.00 | 0.00 | 48 | 1008.8 |
| 20260831213013 | 85 | 265 | 3.0 | 8.0 | 0.00 | 0.00 | 0.00 | 48 | 1008.9 |
| 20260831211516 | 86 | 340 | 3.0 | 10.0 | 0.00 | 0.00 | 0.00 | 48 | 1009.0 |
| 20260831210010 | 85 | 311 | 6.0 | 11.0 | 0.00 | 0.00 | 0.00 | 47 | 1008.9 |
| 20260831204515 | 85 | 254 | 6.0 | 11.0 | 0.00 | 0.00 | 0.00 | 50 | 1009.0 |
| 20260831203010 | 85 | 281 | 5.0 | 9.0 | 0.00 | 0.00 | 0.00 | 50 | 1009.0 |
| 20260831201512 | 85 | 311 | 5.0 | 10.0 | 0.00 | 0.00 | 0.00 | 50 | 1008.9 |
| 20260831200005 | 83 | 41 | 4.0 | 7.0 | 0.00 | 0.00 | 0.00 | 54 | 1008.7 |
| 20260831194521 | 84 | 304 | 4.0 | 8.0 | 0.00 | 0.00 | 0.00 | 54 | 1008.8 |
| 20260831193126 | 84 | 286 | 7.0 | 11.0 | 0.00 | 0.00 | 0.00 | 51 | 1008.8 |
| 20260831191506 | 84 | 307 | 3.0 | 13.0 | 0.00 | 0.00 | 0.00 | 51 | 1008.8 |
| 20260831190010 | 83 | 347 | 4.0 | 12.0 | 0.00 | 0.00 | 0.00 | 57 | 1008.7 |
| 20260831184508 | 83 | 292 | 8.0 | 11.0 | 0.00 | 0.00 | 0.00 | 56 | 1008.8 |
| 20260831183130 | 82 | 17 | 4.0 | 12.0 | 0.00 | 0.00 | 0.00 | 60 | 1008.6 |
| 20260831181628 | 81 | 328 | 5.0 | 12.0 | 0.00 | 0.00 | 0.00 | 65 | 1008.6 |
| 20260831180010 | 81 | 246 | 4.0 | 10.0 | 0.00 | 0.00 | 0.00 | 68 | 1008.7 |
| 20260831174508 | 81 | 304 | 4.0 | 9.0 | 0.00 | 0.00 | 0.00 | 68 | 1008.8 |
| 20260831173006 | 80 | 261 | 2.0 | 8.0 | 0.00 | 0.00 | 0.00 | 73 | 1008.9 |
| 20260831171515 | 80 | 307 | 4.0 | 10.0 | 0.00 | 0.00 | 0.00 | 73 | 1009.0 |
| 20260831170013 | 80 | 49 | 3.0 | 10.0 | 0.00 | 0.00 | 0.00 | 76 | 1009.1 |
| 20260831164510 | 79 | 319 | 3.0 | 6.0 | 0.00 | 0.00 | 0.00 | 78 | 1009.0 |
| 20260831163004 | 78 | 250 | 5.0 | 11.0 | 0.00 | 0.00 | 0.00 | 79 | 1008.8 |
| 20260831161627 | 77 | 304 | 4.0 | 8.0 | 0.00 | 0.00 | 0.00 | 81 | 1008.7 |
| 20260831160023 | 76 | 309 | 5.0 | 11.0 | 0.00 | 0.00 | 0.00 | 84 | 1008.7 |
| 20260831154508 | 75 | 301 | 3.0 | 11.0 | 0.00 | 0.00 | 0.00 | 86 | 1008.7 |
| 20260831153014 | 74 | 337 | 2.0 | 7.0 | 0.00 | 0.00 | 0.00 | 89 | 1008.6 |
| 20260831151626 | 74 | 290 | 2.0 | 8.0 | 0.00 | 0.00 | 0.00 | 91 | 1008.3 |
| 20260831150004 | 72 | 313 | 6.0 | 12.0 | 0.00 | 0.00 | 0.00 | 92 | 1008.0 |
| 20260831144521 | 72 | 306 | 6.0 | 11.0 | 0.00 | 0.00 | 0.00 | 93 | 1007.7 |
| 20260831143016 | 71 | 291 | 5.0 | 10.0 | 0.00 | 0.00 | 0.00 | 94 | 1007.7 |
| 20260831141507 | 71 | 321 | 2.0 | 4.0 | 0.00 | 0.00 | 0.00 | 94 | 1007.5 |
| 20260831140125 | 71 | 244 | 1.0 | 5.0 | 0.00 | 0.00 | 0.00 | 94 | 1007.5 |
| 20260831134516 | 70 | 298 | 2.0 | 4.0 | 0.00 | 0.00 | 0.00 | 94 | 1007.0 |
| 20260831133012 | 70 | 201 | 0.0 | 1.0 | 0.00 | 0.00 | 0.00 | 94 | 1006.9 |
| 20260831131517 | 69 | 201 | 0.0 | 1.0 | 0.00 | 0.00 | 0.00 | 94 | 1007.0 |
| 20260831130003 | 69 | 201 | 1.0 | 2.0 | 0.00 | 0.00 | 0.00 | 94 | 1007.0 |
| 20260831124509 | 68 | 201 | 0.0 | 0.0 | 0.00 | 0.00 | 0.00 | 94 | 1006.7 |
| 20260831123011 | 68 | 201 | 0.0 | 0.0 | 0.00 | 0.00 | 0.00 | 94 | 1006.3 |
| 20260831121510 | 66 | 201 | 0.0 | 1.0 | 0.00 | 0.00 | 0.00 | 94 | 1006.1 |
| 20260831120021 | 66 | 201 | 0.0 | 2.0 | 0.00 | 0.00 | 0.00 | 94 | 1005.8 |
| 20260831114514 | 66 | 201 | 0.0 | 0.0 | 0.00 | 0.00 | 0.00 | 93 | 1005.7 |
| 20260831113013 | 66 | 201 | 0.0 | 1.0 | 0.00 | 0.00 | 0.00 | 93 | 1005.7 |
| 20260831111629 | 67 | 201 | 0.0 | 3.0 | 0.00 | 0.00 | 0.00 | 93 | 1005.7 |
| 20260831110008 | 67 | 201 | 2.0 | 4.0 | 0.00 | 0.00 | 0.00 | 93 | 1005.5 |
| 20260831104505 | 67 | 201 | 2.0 | 4.0 | 0.00 | 0.00 | 0.00 | 93 | 1005.5 |
| 20260831103128 | 67 | 134 | 1.0 | 3.0 | 0.00 | 0.00 | 0.00 | 93 | 1005.4 |
| 20260831101509 | 67 | 134 | 0.0 | 2.0 | 0.00 | 0.00 | 0.00 | 92 | 1005.2 |
| 20260831100024 | 68 | 134 | 1.0 | 3.0 | 0.00 | 0.00 | 0.00 | 92 | 1005.1 |
| 20260831094523 | 68 | 134 | 1.0 | 3.0 | 0.00 | 0.00 | 0.00 | 92 | 1005.0 |
| 20260831093015 | 68 | 153 | 1.0 | 5.0 | 0.00 | 0.00 | 0.00 | 92 | 1005.2 |